When you browse on this site, cookies collect data to enhance your experience and personalize the content and advertising you see.
Visit our Privacy Policy to learn more. By continuing to use the site, you agree to this use of cookies and data.
  • In Austria
  • List of Countries
  • For 7 days
  • Water Temperature
  • Weather Map
  • News
  • Weather Widgets
  • user-avatar
    Login

    Hourly Weather Bolshie Steblevichi

    Today, 18 August, Sunday

    Time Temperature Precipitation Wind Pressure Humidity
    00:00 +14°C° 0 mm 1 mps 749 mmHg 87%
    01:00 +13°C° 0 mm 1 mps 749 mmHg 88%
    02:00 +13°C° 0 mm 1 mps 749 mmHg 88%
    03:00 +13°C° 0 mm 1 mps 749 mmHg 89%
    04:00 +13°C° 0 mm 1 mps 749 mmHg 90%
    05:00 +13°C° 0 mm 2 mps 748 mmHg 91%
    06:00 +14°C° 0 mm 2 mps 749 mmHg 85%
    07:00 +16°C° 0 mm 1 mps 749 mmHg 79%
    08:00 +19°C° 0 mm 1 mps 749 mmHg 74%
    09:00 +20°C° 0 mm 2 mps 749 mmHg 69%
    10:00 +21°C° 0 mm 2 mps 749 mmHg 64%
    11:00 +24°C° 0 mm 2 mps 749 mmHg 59%
    12:00 +24°C° 0 mm 2 mps 749 mmHg 57%
    13:00 +25°C° 0 mm 2 mps 749 mmHg 56%
    14:00 +26°C° 0 mm 2 mps 749 mmHg 54%
    15:00 +25°C° 0 mm 2 mps 749 mmHg 57%
    16:00 +25°C° 0 mm 2 mps 749 mmHg 59%
    17:00 +25°C° 0 mm 2 mps 749 mmHg 62%
    18:00 +23°C° 0 mm 2 mps 749 mmHg 67%
    19:00 +21°C° 0 mm 1 mps 749 mmHg 73%
    20:00 +20°C° 0 mm 1 mps 749 mmHg 79%
    21:00 +19°C° 0 mm 1 mps 749 mmHg 80%
    22:00 +17°C° 0 mm 2 mps 749 mmHg 81%
    23:00 +17°C° 0 mm 2 mps 750 mmHg 83%

    Tomorrow, 19 August, Monday

    Time Temperature Precipitation Wind Pressure Humidity
    00:00 +17°C° 0 mm 2 mps 750 mmHg 84%
    01:00 +16°C° 0 mm 2 mps 750 mmHg 84%
    02:00 +16°C° 0 mm 2 mps 750 mmHg 85%
    03:00 +16°C° 0 mm 2 mps 750 mmHg 85%
    04:00 +14°C° 0 mm 3 mps 750 mmHg 85%
    05:00 +14°C° 0 mm 3 mps 750 mmHg 85%
    06:00 +17°C° 0 mm 3 mps 750 mmHg 82%
    07:00 +18°C° 0 mm 3 mps 750 mmHg 80%
    08:00 +20°C° 0 mm 3 mps 750 mmHg 77%
    09:00 +22°C° 0 mm 3 mps 750 mmHg 74%
    10:00 +24°C° 0 mm 3 mps 751 mmHg 70%
    11:00 +26°C° 0 mm 3 mps 751 mmHg 67%
    12:00 +27°C° 0 mm 3 mps 751 mmHg 64%
    13:00 +28°C° 0 mm 3 mps 751 mmHg 62%
    14:00 +29°C° 0 mm 3 mps 751 mmHg 60%
    15:00 +29°C° 0.6 mm 3 mps 751 mmHg 63%
    16:00 +29°C° 0.6 mm 2 mps 751 mmHg 67%
    17:00 +29°C° 0.6 mm 2 mps 751 mmHg 70%
    18:00 +27°C° 0 mm 2 mps 751 mmHg 75%
    19:00 +25°C° 0 mm 2 mps 751 mmHg 79%
    20:00 +24°C° 0 mm 2 mps 751 mmHg 83%
    21:00 +23°C° 0.1 mm 2 mps 751 mmHg 85%
    22:00 +21°C° 0.1 mm 3 mps 751 mmHg 87%
    23:00 +21°C° 0.1 mm 3 mps 752 mmHg 88%

    Day after tomorrow, 20 August, Tuesday

    Time Temperature Precipitation Wind Pressure Humidity
    00:00 +20°C° 1.2 mm 2 mps 752 mmHg 91%
    01:00 +20°C° 1.2 mm 2 mps 752 mmHg 93%
    02:00 +19°C° 1.2 mm 2 mps 752 mmHg 95%
    03:00 +19°C° 0.1 mm 2 mps 752 mmHg 95%
    04:00 +19°C° 0.1 mm 2 mps 752 mmHg 95%
    05:00 +19°C° 0.1 mm 2 mps 752 mmHg 95%
    06:00 +20°C° 0.1 mm 2 mps 753 mmHg 93%
    07:00 +22°C° 0.1 mm 1 mps 753 mmHg 91%
    08:00 +23°C° 0.1 mm 1 mps 753 mmHg 89%
    09:00 +24°C° 0 mm 1 mps 753 mmHg 83%
    10:00 +26°C° 0 mm 1 mps 754 mmHg 77%
    11:00 +27°C° 0 mm 1 mps 754 mmHg 71%
    12:00 +28°C° 0 mm 1 mps 754 mmHg 68%
    13:00 +28°C° 0 mm 1 mps 754 mmHg 64%
    14:00 +29°C° 0 mm 1 mps 754 mmHg 61%
    15:00 +29°C° 0.4 mm 1 mps 754 mmHg 64%
    16:00 +28°C° 0.4 mm 1 mps 754 mmHg 68%
    17:00 +28°C° 0.4 mm 1 mps 754 mmHg 71%
    18:00 +26°C° 0.5 mm 1 mps 754 mmHg 77%
    19:00 +24°C° 0.5 mm 1 mps 754 mmHg 82%
    20:00 +23°C° 0.5 mm 1 mps 754 mmHg 87%
    21:00 +22°C° 0.2 mm 1 mps 754 mmHg 89%
    22:00 +21°C° 0.2 mm 1 mps 754 mmHg 91%
    23:00 +21°C° 0.2 mm 1 mps 755 mmHg 92%

    21 August, Wednesday

    Time Temperature Precipitation Wind Pressure Humidity
    00:00 +21°C° 0.2 mm 1 mps 755 mmHg 93%
    01:00 +20°C° 0.2 mm 1 mps 754 mmHg 93%
    02:00 +20°C° 0.2 mm 1 mps 754 mmHg 94%
    03:00 +20°C° 0.3 mm 1 mps 754 mmHg 94%
    04:00 +20°C° 0.3 mm 1 mps 754 mmHg 95%
    05:00 +20°C° 0.3 mm 1 mps 754 mmHg 95%
    06:00 +21°C° 0.3 mm 1 mps 754 mmHg 94%
    07:00 +21°C° 0.3 mm 1 mps 754 mmHg 93%
    08:00 +22°C° 0.3 mm 1 mps 754 mmHg 92%
    09:00 +24°C° 0 mm 2 mps 754 mmHg 86%
    10:00 +25°C° 0 mm 2 mps 753 mmHg 80%
    11:00 +26°C° 0 mm 2 mps 753 mmHg 74%
    12:00 +27°C° 0 mm 2 mps 753 mmHg 68%
    13:00 +28°C° 0 mm 2 mps 752 mmHg 62%
    14:00 +30°C° 0 mm 3 mps 752 mmHg 57%
    15:00 +30°C° 0 mm 3 mps 752 mmHg 59%
    16:00 +30°C° 0 mm 2 mps 752 mmHg 61%
    17:00 +30°C° 0 mm 2 mps 752 mmHg 63%
    18:00 +27°C° 0.2 mm 3 mps 752 mmHg 71%
    19:00 +25°C° 0.2 mm 4 mps 752 mmHg 78%
    20:00 +21°C° 0.2 mm 5 mps 752 mmHg 86%
    21:00 +20°C° 0 mm 5 mps 753 mmHg 88%
    22:00 +18°C° 0 mm 4 mps 753 mmHg 90%
    23:00 +17°C° 0 mm 4 mps 753 mmHg 92%

    22 August, Thursday

    Time Temperature Precipitation Wind Pressure Humidity
    00:00 +16°C° 0 mm 5 mps 754 mmHg 91%
    01:00 +15°C° 0 mm 5 mps 754 mmHg 90%
    02:00 +15°C° 0 mm 5 mps 754 mmHg 88%
    03:00 +15°C° 0 mm 5 mps 755 mmHg 88%
    04:00 +14°C° 0 mm 5 mps 755 mmHg 88%
    05:00 +14°C° 0 mm 5 mps 755 mmHg 88%
    06:00 +15°C° 0 mm 5 mps 755 mmHg 86%
    07:00 +15°C° 0 mm 5 mps 756 mmHg 83%
    08:00 +16°C° 0 mm 5 mps 756 mmHg 81%
    09:00 +17°C° 0 mm 5 mps 756 mmHg 76%
    10:00 +20°C° 0 mm 4 mps 756 mmHg 71%
    11:00 +21°C° 0 mm 4 mps 757 mmHg 66%
    12:00 +22°C° 0 mm 4 mps 756 mmHg 64%
    13:00 +22°C° 0 mm 4 mps 756 mmHg 61%
    14:00 +23°C° 0 mm 4 mps 756 mmHg 59%
    15:00 +23°C° 0 mm 4 mps 756 mmHg 62%
    16:00 +22°C° 0 mm 3 mps 756 mmHg 65%
    17:00 +22°C° 0 mm 3 mps 756 mmHg 68%
    18:00 +21°C° 0 mm 3 mps 756 mmHg 74%
    19:00 +19°C° 0 mm 3 mps 756 mmHg 79%
    20:00 +18°C° 0 mm 3 mps 757 mmHg 85%
    21:00 +17°C° 0 mm 2 mps 757 mmHg 87%
    22:00 +16°C° 0 mm 2 mps 757 mmHg 89%
    23:00 +15°C° 0 mm 2 mps 757 mmHg 91%

    23 August, Friday

    Time Temperature Precipitation Wind Pressure Humidity
    00:00 +15°C° 0 mm 2 mps 757 mmHg 92%
    01:00 +14°C° 0 mm 2 mps 757 mmHg 92%
    02:00 +14°C° 0 mm 2 mps 758 mmHg 93%
    03:00 +13°C° 0 mm 2 mps 758 mmHg 93%
    04:00 +13°C° 0 mm 2 mps 758 mmHg 94%
    05:00 +12°C° 0 mm 2 mps 758 mmHg 94%
    06:00 +14°C° 0 mm 2 mps 758 mmHg 88%
    07:00 +15°C° 0 mm 2 mps 758 mmHg 83%
    08:00 +17°C° 0 mm 2 mps 758 mmHg 77%
    09:00 +18°C° 0 mm 2 mps 758 mmHg 70%
    10:00 +20°C° 0 mm 2 mps 758 mmHg 64%
    11:00 +21°C° 0 mm 2 mps 758 mmHg 57%
    12:00 +21°C° 0 mm 2 mps 758 mmHg 55%
    13:00 +22°C° 0 mm 3 mps 758 mmHg 53%
    14:00 +22°C° 0 mm 3 mps 757 mmHg 51%
    15:00 +22°C° 0 mm 3 mps 757 mmHg 54%
    16:00 +22°C° 0 mm 3 mps 757 mmHg 58%
    17:00 +21°C° 0 mm 3 mps 757 mmHg 61%
    18:00 +19°C° 0 mm 2 mps 757 mmHg 67%
    19:00 +17°C° 0 mm 2 mps 757 mmHg 73%
    20:00 +16°C° 0 mm 2 mps 757 mmHg 79%
    21:00 +15°C° 0 mm 1 mps 758 mmHg 81%
    22:00 +14°C° 0 mm 1 mps 758 mmHg 83%
    23:00 +14°C° 0 mm 1 mps 758 mmHg 85%
    Show more